TimeCST,TemperatureF,Dew PointF,Humidity,Sea Level PressureIn,VisibilityMPH,Wind Direction,Wind SpeedMPH,Gust SpeedMPH,PrecipitationIn,Events,Conditions,WindDirDegrees,DateUTC
12:14 AM,8.6,3.2,79,29.81,5.0,SSE,4.6,-,N/A,Snow,Light Snow,150,2014-02-01 06:14:00
12:35 AM,8.6,5.0,85,29.81,2.0,SSE,4.6,-,N/A,Snow,Light Snow,150,2014-02-01 06:35:00
12:55 AM,8.6,5.0,85,29.80,3.0,SSE,6.9,-,N/A,Snow,Light Snow,150,2014-02-01 06:55:00
1:14 AM,8.6,6.8,92,29.80,5.0,SSE,5.8,-,N/A,Snow,Light Snow,150,2014-02-01 07:14:00
1:35 AM,8.6,6.8,92,29.79,7.0,SSE,5.8,-,N/A,Snow,Light Snow,150,2014-02-01 07:35:00
1:55 AM,10.4,6.8,85,29.79,10.0,SSE,5.8,-,N/A,,Overcast,150,2014-02-01 07:55:00
2:14 AM,10.4,8.6,92,29.79,10.0,SSE,3.5,-,N/A,,Overcast,150,2014-02-01 08:14:00
2:35 AM,10.4,8.6,92,29.79,10.0,South,5.8,-,N/A,,Overcast,170,2014-02-01 08:35:00
2:55 AM,12.2,8.6,85,29.80,10.0,SSE,5.8,-,N/A,Snow,Light Snow,160,2014-02-01 08:55:00
3:14 AM,10.4,8.6,92,29.79,10.0,SE,3.5,-,N/A,Snow,Light Snow,140,2014-02-01 09:14:00
3:35 AM,10.4,8.6,92,29.80,10.0,SE,3.5,-,N/A,Snow,Light Snow,130,2014-02-01 09:35:00
3:54 AM,10.4,8.6,92,29.80,10.0,Calm,Calm,-,N/A,Snow,Light Snow,0,2014-02-01 09:54:00
4:15 AM,10.4,8.6,92,29.81,7.0,Calm,Calm,-,N/A,Snow,Light Snow,0,2014-02-01 10:15:00
4:35 AM,10.4,8.6,92,29.81,7.0,Calm,Calm,-,N/A,Snow,Light Snow,0,2014-02-01 10:35:00
4:54 AM,10.4,8.6,92,29.82,5.0,Calm,Calm,-,N/A,Snow,Light Snow,0,2014-02-01 10:54:00
5:15 AM,10.4,8.6,92,29.83,7.0,Calm,Calm,-,N/A,Snow,Light Snow,0,2014-02-01 11:15:00
5:34 AM,10.4,8.6,92,29.83,7.0,Calm,Calm,-,N/A,Snow,Light Snow,0,2014-02-01 11:34:00
5:55 AM,12.2,8.6,85,29.84,5.0,WNW,4.6,-,N/A,Snow,Light Snow,290,2014-02-01 11:55:00
6:14 AM,12.2,10.4,92,29.85,10.0,NW,12.7,-,N/A,Snow,Light Snow,310,2014-02-01 12:14:00
6:35 AM,12.2,8.6,85,29.86,5.0,NW,15.0,-,N/A,Snow,Light Snow,320,2014-02-01 12:35:00
6:55 AM,10.4,8.6,92,29.87,4.0,NW,15.0,21.9,N/A,Snow,Light Snow,320,2014-02-01 12:55:00
7:15 AM,10.4,6.8,85,29.88,10.0,NNW,17.3,20.7,N/A,Snow,Light Snow,330,2014-02-01 13:15:00
7:35 AM,8.6,5.0,85,29.89,10.0,NW,15.0,-,N/A,Snow,Light Snow,320,2014-02-01 13:35:00
7:54 AM,6.8,5.0,92,29.90,10.0,NW,16.1,20.7,N/A,Snow,Light Snow,320,2014-02-01 13:54:00
8:15 AM,5.0,3.2,92,29.91,7.0,NW,15.0,20.7,N/A,Snow,Light Snow,320,2014-02-01 14:15:00
8:35 AM,5.0,1.4,85,29.92,7.0,NW,18.4,23.0,N/A,Snow,Light Snow,310,2014-02-01 14:35:00
8:54 AM,5.0,1.4,85,29.94,7.0,NW,15.0,21.9,N/A,Snow,Light Snow,320,2014-02-01 14:54:00
9:15 AM,3.2,1.4,92,29.96,3.0,NW,18.4,25.3,N/A,Snow,Light Snow,320,2014-02-01 15:15:00
9:35 AM,3.2,-0.4,85,29.97,0.2,NW,16.1,23.0,N/A,Snow,Light Snow,320,2014-02-01 15:35:00
9:54 AM,3.2,-0.4,85,29.97,0.5,NW,15.0,21.9,N/A,Snow,Light Snow,320,2014-02-01 15:54:00
10:15 AM,1.4,-2.2,85,29.99,0.2,NNW,17.3,26.5,N/A,Snow,Snow,330,2014-02-01 16:15:00
10:35 AM,1.4,-4.0,78,30.00,1.0,NW,16.1,21.9,N/A,Snow,Light Snow,320,2014-02-01 16:35:00
10:54 AM,1.4,-4.0,78,30.01,1.5,NNW,15.0,23.0,N/A,Snow,Light Snow,330,2014-02-01 16:54:00
11:15 AM,1.4,-4.0,78,30.01,1.8,NNW,13.8,19.6,N/A,,Unknown,330,2014-02-01 17:15:00
11:35 AM,1.4,-4.0,78,30.01,1.8,NNW,15.0,23.0,N/A,Snow,Light Snow,340,2014-02-01 17:35:00
11:54 AM,1.4,-4.0,78,30.02,1.0,NNW,17.3,-,N/A,Snow,Light Snow,330,2014-02-01 17:54:00
12:15 PM,1.4,-4.0,78,30.02,2.0,NNW,16.1,20.7,N/A,Snow,Light Snow,330,2014-02-01 18:15:00
12:35 PM,1.4,-4.0,78,30.03,2.5,NNW,16.1,21.9,N/A,Snow,Light Snow,330,2014-02-01 18:35:00
12:55 PM,1.4,-4.0,78,30.03,3.0,NNW,13.8,23.0,N/A,Snow,Light Snow,330,2014-02-01 18:55:00
1:15 PM,3.2,-4.0,72,30.04,7.0,NW,18.4,-,N/A,Snow,Light Snow,320,2014-02-01 19:15:00
1:35 PM,3.2,-4.0,72,30.05,10.0,NNW,15.0,-,N/A,,Clear,330,2014-02-01 19:35:00
1:55 PM,1.4,-4.0,78,30.05,10.0,NW,15.0,-,N/A,,Clear,320,2014-02-01 19:55:00
2:15 PM,1.4,-4.0,78,30.05,4.0,NW,15.0,-,N/A,,Haze,320,2014-02-01 20:15:00
2:35 PM,1.4,-4.0,78,30.06,10.0,NW,16.1,19.6,N/A,,Clear,310,2014-02-01 20:35:00
2:55 PM,1.4,-4.0,78,30.07,10.0,NW,13.8,-,N/A,,Clear,320,2014-02-01 20:55:00
3:14 PM,1.4,-4.0,78,30.08,10.0,NW,13.8,-,N/A,,Clear,320,2014-02-01 21:14:00
3:35 PM,1.4,-4.0,78,30.09,10.0,NW,13.8,20.7,N/A,,Clear,320,2014-02-01 21:35:00
3:55 PM,1.4,-4.0,78,30.09,10.0,NW,13.8,-,N/A,,Clear,320,2014-02-01 21:55:00
4:14 PM,1.4,-5.8,72,30.10,10.0,NW,10.4,16.1,N/A,,Clear,320,2014-02-01 22:14:00
4:35 PM,1.4,-5.8,72,30.10,10.0,NW,9.2,-,N/A,,Clear,320,2014-02-01 22:35:00
4:55 PM,-0.4,-5.8,78,30.11,10.0,NW,8.1,-,N/A,,Clear,310,2014-02-01 22:55:00
5:14 PM,-0.4,-5.8,78,30.11,10.0,NW,8.1,-,N/A,,Clear,310,2014-02-01 23:14:00
5:35 PM,-0.4,-5.8,78,30.11,10.0,NW,4.6,-,N/A,,Clear,310,2014-02-01 23:35:00
5:55 PM,-2.2,-5.8,85,30.12,10.0,WNW,4.6,-,N/A,,Clear,300,2014-02-01 23:55:00
6:15 PM,-2.2,-5.8,85,30.13,10.0,WNW,4.6,-,N/A,,Clear,290,2014-02-02 00:15:00
6:35 PM,-2.2,-5.8,85,30.13,10.0,West,4.6,-,N/A,,Clear,270,2014-02-02 00:35:00
6:54 PM,-4.0,-7.6,85,30.14,10.0,WNW,6.9,-,N/A,,Clear,300,2014-02-02 00:54:00
9:42 PM,-4.0,-7.6,85,30.14,10.0,West,3.5,-,N/A,,Scattered Clouds,260,2014-02-02 03:42:00
9:48 PM,-4.0,-7.6,85,30.14,10.0,West,4.6,-,N/A,,Scattered Clouds,280,2014-02-02 03:48:00
10:14 PM,-2.2,-5.8,85,30.14,10.0,West,4.6,-,N/A,,Mostly Cloudy,270,2014-02-02 04:14:00
10:35 PM,-2.2,-5.8,85,30.14,10.0,Calm,Calm,-,N/A,,Mostly Cloudy,0,2014-02-02 04:35:00
10:55 PM,-5.8,-7.6,92,30.14,10.0,SSW,3.5,-,N/A,,Mostly Cloudy,200,2014-02-02 04:55:00
11:15 PM,-7.6,-9.4,92,30.15,10.0,SW,3.5,-,N/A,,Scattered Clouds,220,2014-02-02 05:15:00
11:35 PM,-7.6,-9.4,92,30.14,10.0,Calm,Calm,-,N/A,,Clear,0,2014-02-02 05:35:00
11:54 PM,-4.0,-5.8,92,30.15,10.0,West,3.5,-,N/A,,Clear,280,2014-02-02 05:54:00